Location: Angwan Shehu
(11.2514°N, 7.4613°E)
Time: 00:06:29
(UTC+00:00)

Tiros 1 - Pass Details

Date: 24 April 2021
Orbit: 630 x 664 km, 48.4° (Epoch: 06 May)

Event Time Altitude Azimuth Distance (km) Brightness Sun altitude
Rises 15:00:11 0° 324° (NW) 2,903 11.0 38.3°
Reaches altitude 10° 15:02:30 10° 326° (NNW) 1,998 10.3 37.7°
Maximum altitude 15:07:05 69° 50° (NE) 676 7.6 36.6°
Drops below altitude 10° 15:11:41 10° 133° (SE) 2,012 9.4 35.5°
Sets 15:14:01 0° 136° (SE) 2,925 10.1 34.9°
